{"data":{"norad_id":51966,"intl_designator":"2022-025L","name":"STARLINK-3699","alt_names":[],"object_type":"PAYLOAD","status":"ACTIVE","operator":null,"country":"US","launch_date":"2022-03-09","launch_site_code":"AFETR","launch_vehicle":null,"mission":null,"orbit_class":"UNKNOWN","rcs_meters":null,"size_class":null,"mass_kg":null,"dimensions":null,"purposes":["comms"],"wikipedia_slug":null,"has_3d_model":false,"image_url":null,"decayed_at":null,"tle_current":{"epoch":"2026-09-20T03:20:27.877056Z","epoch_age_seconds":87338,"freshness":"FRESH","line1":"1 51966U 22025L   26263.13921154 -.00000563  00000+0 -63657-5 0  9990","line2":"2 51966  53.1597 212.0535 0001569  86.7925 273.3256 15.31700102250628","mean_motion":15.31700102,"eccentricity":0.0001569,"inclination_deg":53.1597,"raan_deg":212.0535,"arg_perigee_deg":86.7925,"mean_anomaly_deg":273.3256,"bstar":-6.3657e-6,"rev_number":25062,"period_min":94.0131817005,"perigee_km":469.66510241613,"apogee_km":471.81427992182,"semimajor_km":6848.876691169,"source":"CELESTRAK","updated_at":"2026-09-20T09:00:39.976883Z"}}}